Showing default

KUIPER-00370, 68919

Orbit data source: Space-Track

KUIPER-00370, 68919 is a payload satellite owned by Kuiper Systems (US) in LEO that was launched on Thu, 30 Apr 2026 UTC via an ARIANE 64 launch vehicle from the Air Force Eastern Test Range (AFETR). Payload-class satellites include a variety of spacecraft equipped with specific instruments for various scientific and technological missions. These include communications satellites like Starlink; space stations such as the ISS; scientific satellites like the Hubble; Earth observation satellites from companies like Planet Labs, Umbra, and HawkEye 360; GPS; miniature CubeSats for education and research; and military/defense satellites.

Loading next visibility...
Identifier
68919, 2026-098A
Orbit
LEO
Country
Flag of USUS
Related business
Manufacturer
Kuiper Systems
Mission
Operational spacecraft
Bus & Motor
KUIPER, Unknown motor
Mass
~490 kg wet, ~490 kg dry
Launch date (UTC)
2026-04-30 (6 days ago)
Launch vehicle
ARIANE 64
Launch site
Air Force Eastern Test Range (AFETR)
Object type
Payload
Rocket body
Debris
Shape & HBR
Unknown
Radar Cross Section
RCS unknown

Expand to show TLE details & history
Last TLE update: 5 hours ago

TLE from 5 hours ago
0 KUIPER-00370
1 68919U 26098A   26126.25002315  .00058113  00000-0  17875-2 0  9991
2 68919  51.8743 269.8297 0014626   3.7579  47.3812 15.33012256  1842
Epoch: 2026-05-06T06:00Z
TLE epoch observation values (Epoch: 2026-05-06T06:00:02.000Z)
Latitude
37.97703°
Longitude
-6.75504°
Altitude
463.089 km
Speed
7.644 km/s
True Right ascension
20h 29m 27s
True Declination
37° 48' 11"
Sunlit
Object was in daylight at epoch
Visualization orbit readout
Latitude
Unknown
Longitude
Unknown
Altitude
Unknown
Speed
Unknown
Apparent Right ascension
Unknown
Apparent Declination
Unknown
Sunlit
N/A
Visualization observer readout
Local Sidereal Time
18:52:50
Azimuth
Unknown
Elevation
Unknown
Doppler factor
Unknown
Orbital elements
Apogee altitude
477.309 km
Perigee altitude
457.285 km
Semi-major axis
6,845.434 km
Eccentricity
0.00146
Inclination
51.8743°
RAAN
269.8297°
Arg. of periapsis
3.7579°
True anomaly
47.50469°
Mean anomaly
47.3812°
Eccentric anomaly
47.44293°
Mean motion
3.83214 °/min
Orbital period
93.94 mins
BSTAR
0.0017875
Loading maneuver chart data...
Computing Atmospheric mass density...
Loading historical data...
Loading historical data...
Loading historical data...
Loading historical data...
Loading historical data...
Loading historical data...
Loading historical data...

Documentation

Showing up to 5 results
|